Погода в Каменце-Подольском

Украина / Хмельницкая область     48°40′39″N   26°34′59″E
темп.,
°C
ветер,
м/с
пор.,
м/с
влажн.,
%
обл.,
%
осадки,
мм/ч
давл.,
гПа
погр.,
м
5 августа, чт
чт500:00+17в229248 3.0 101434
03:00+17вюв2291100 3.2 101317
06:00+17ююв1189100 0.0 101311
09:00+21юв3480100 0.0 1012222
12:00+26ююв55575 0.0 1010862
15:00+28ююв674967 0.0 10081597
18:00+28вюв795421 0.0 10051283
21:00+20ююз4997100 21.1 1004486
6 августа, пт
пт600:00+18ююв499463 5.3 1005237
03:00+17ююв359599 6.0 1003109
06:00+17ю1292100 0.0 100216
09:00+21з347785 0.0 1002272
12:00+24сз335879 0.0 10031310
15:00+24з3364100 3.4 1003876
18:00+21ссз688126 3.7 1004636
21:00+17ссз4984100 4.0 1007446
7 августа, сб
сб700:00+15зсз4109034 0.0 1009405
03:00+13сз411904 0.0 1010380
06:00+12сз23920 0.0 101161
09:00+16зсз34720 0.0 1012382
12:00+22зсз35570 0.0 10131206
15:00+24сз34481 0.0 10121665
18:00+25ссз23484 0.0 10121493
21:00+20ююв22615 0.0 101411
8 августа, вс
вс800:00+18ююв33701 0.0 101533
03:00+17ююв337634 0.0 101532
06:00+16юв33815 0.0 101542
09:00+20ююв47682 0.0 1016322
12:00+25ююв68547 0.0 1016900
15:00+27ююв66465 0.0 10151175
18:00+27юв57520 0.0 1015709
21:00+21юв410693 0.0 1015182
9 августа, пн
пн900:00+20юв4116996 0.0 1016196
03:00+19юв412695 0.0 1015226
06:00+18ююв413685 0.0 1015259
09:00+21юв3464100 0.0 1016246
12:00+25ю3455100 0.0 1016610
15:00+27сз225161 0.0 1017922
18:00+27с3456100 0.0 1017620
21:00+20ссз4109052 0.7 1019290